This is the latest recevied weather packets stored in our database for station/object W8KVG. If no packets are shown the sender has not sent any weather packets the latest 10 day(s).
| Time | Temp. | Humidity | Pressure | Rain* | Wind** | Luminosity | Snow |
|---|---|---|---|---|---|---|---|
| 1777921187 | 22.78° C | 48% | 1006.9 hPa | 0 mm | - | 428 W/m² | - |
| 1777920884 | 22.22° C | 49% | 1006.9 hPa | 0 mm | - | 877 W/m² | - |
| 1777920579 | 22.22° C | 48% | 1007 hPa | 0 mm | - | 716 W/m² | - |
| 1777920276 | 22.22° C | 47% | 1007 hPa | 0 mm | - | 526 W/m² | - |
| 1777919971 | 22.22° C | 49% | 1007.3 hPa | 0 mm | - | 870 W/m² | - |
| 1777919669 | 22.22° C | 47% | 1007.2 hPa | 0 mm | - | 480 W/m² | - |
| 1777919367 | 22.78° C | 47% | 1007.2 hPa | 0 mm | - | 872 W/m² | - |
| 1777919063 | 22.78° C | 49% | 1007.3 hPa | 0 mm | - | 869 W/m² | - |
| 1777918761 | 22.22° C | 48% | 1007.3 hPa | 0 mm | - | 876 W/m² | - |
| 1777918458 | 22.22° C | 50% | 1007.3 hPa | 0 mm | - | 856 W/m² | - |
| 1777918156 | 22.78° C | 49% | 1007.3 hPa | 0 mm | - | 863 W/m² | - |
| 1777917855 | 22.22° C | 48% | 1007.3 hPa | 0 mm | - | 924 W/m² | - |
| 1777917553 | 22.22° C | 49% | 1007.5 hPa | 0 mm | - | 864 W/m² | - |
| 1777917249 | 21.67° C | 47% | 1007.7 hPa | 0 mm | - | 844 W/m² | - |
| 1777916947 | 21.67° C | 48% | 1007.7 hPa | 0 mm | - | 877 W/m² | - |
| 1777916645 | 21.67° C | 47% | 1007.7 hPa | 0 mm | - | 895 W/m² | - |
| 1777916342 | 21.67° C | 48% | 1007.6 hPa | 0 mm | - | 875 W/m² | - |
| 1777916038 | 21.67° C | 48% | 1007.5 hPa | 0 mm | - | 831 W/m² | - |
| 1777915735 | 21.11° C | 48% | 1007.6 hPa | 0 mm | - | 853 W/m² | - |
| 1777915432 | 21.11° C | 50% | 1007.8 hPa | 0 mm | - | 862 W/m² | - |
| 1777915127 | 21.11° C | 50% | 1007.8 hPa | 0 mm | - | 859 W/m² | - |
| 1777914825 | 20.56° C | 48% | 1007.9 hPa | 0 mm | - | 898 W/m² | - |
| 1777914522 | 20.56° C | 52% | 1008.1 hPa | 0 mm | - | 889 W/m² | - |
| 1777914219 | 20° C | 51% | 1008.1 hPa | 0 mm | - | 892 W/m² | - |
| 1777913915 | 20.56° C | 48% | 1008.2 hPa | 0 mm | - | 878 W/m² | - |
* Rain latest hour (hover to see other rain measurements)
** Current wind speed in m/s (hover to see current wind gust speed)